This is the latest recevied weather packets stored in our database for station/object JF7BTK-10. If no packets are shown the sender has not sent any weather packets the latest 10 day(s).
| Time | Temp. | Humidity | Pressure | Rain* | Wind** | Luminosity | Snow |
|---|---|---|---|---|---|---|---|
| 1777726735 | 8.33° C | 78% | 1004 hPa | 0 mm | - | - | - |
| 1777725834 | 8.33° C | 77% | 1004.1 hPa | 0 mm | - | - | - |
| 1777724935 | 8.89° C | 77% | 1004.1 hPa | 0 mm | - | - | - |
| 1777724035 | 8.89° C | 77% | 1004 hPa | 0 mm | - | - | - |
| 1777723135 | 9.44° C | 78% | 1004 hPa | 0 mm | - | - | - |
| 1777722234 | 9.44° C | 77% | 1003.9 hPa | 0 mm | - | - | - |
| 1777721334 | 10° C | 77% | 1003.8 hPa | 0 mm | - | - | - |
| 1777720435 | 10° C | 75% | 1003.7 hPa | 0 mm | - | - | - |
| 1777719534 | 10° C | 73% | 1003.6 hPa | 0 mm | - | - | - |
| 1777718635 | 10.56° C | 72% | 1003.8 hPa | 0 mm | - | - | - |
| 1777717736 | 11.11° C | 73% | 1003.5 hPa | 0 mm | - | - | - |
| 1777716835 | 11.11° C | 74% | 1003.3 hPa | 0 mm | - | - | - |
| 1777715935 | 11.11° C | 73% | 1003.4 hPa | 0 mm | - | - | - |
| 1777715035 | 11.67° C | 72% | 1003.3 hPa | 0 mm | - | - | - |
| 1777714136 | 11.67° C | 72% | 1003.2 hPa | 0 mm | - | - | - |
| 1777713234 | 11.67° C | 72% | 1003.1 hPa | 0 mm | - | - | - |
| 1777712336 | 12.22° C | 71% | 1002.9 hPa | 0 mm | - | - | - |
| 1777711436 | 12.22° C | 70% | 1002.7 hPa | 0 mm | - | - | - |
| 1777710536 | 12.78° C | 63% | 1002.7 hPa | 0 mm | - | - | - |
| 1777709636 | 13.33° C | 61% | 1002.6 hPa | 0 mm | - | - | - |
| 1777708736 | 13.33° C | 61% | 1002.4 hPa | 0 mm | - | - | - |
| 1777707836 | 13.33° C | 62% | 1002 hPa | 0 mm | - | - | - |
| 1777706935 | 13.33° C | 64% | 1001.8 hPa | 0 mm | - | - | - |
| 1777706035 | 13.89° C | 63% | 1001.5 hPa | 0 mm | - | - | - |
| 1777705136 | 13.89° C | 62% | 1000.9 hPa | 0 mm | - | - | - |
* Rain latest hour (hover to see other rain measurements)
** Current wind speed in m/s (hover to see current wind gust speed)